Time,TemperatureF,DewpointF,PressureIn,WindDirection,WindDirectionDegrees,WindSpeedMPH,WindSpeedGustMPH,Humidity,HourlyPrecipIn,Conditions,Clouds,dailyrainin,SoftwareType,DateUTC
2013-03-20 00:09:00,24.6,16.9,30.23,North,-999,6.4,-999.0,72,-99.99,,,-99.99,Acu-Link.com,2013-03-20 05:09:00,
2013-03-20 00:25:00,23.8,15.5,30.24,North,-999,9.6,-999.0,70,-99.99,,,-99.99,Acu-Link.com,2013-03-20 05:25:00,
2013-03-20 00:40:00,23.1,15.4,30.25,North,-999,16.1,-999.0,72,-99.99,,,-99.99,Acu-Link.com,2013-03-20 05:40:00,
2013-03-20 00:55:00,22.2,14.6,30.25,North,-999,9.6,-999.0,72,-99.99,,,-99.99,Acu-Link.com,2013-03-20 05:55:00,
2013-03-20 01:11:00,21.5,13.9,30.26,North,-999,1.6,-999.0,72,-99.99,,,-99.99,Acu-Link.com,2013-03-20 06:11:00,
2013-03-20 01:26:00,20.7,14.1,30.26,North,-999,1.6,-999.0,75,-99.99,,,-99.99,Acu-Link.com,2013-03-20 06:26:00,
2013-03-20 01:41:00,20.0,14.0,30.26,North,-999,8.0,-999.0,77,-99.99,,,-99.99,Acu-Link.com,2013-03-20 06:41:00,
2013-03-20 01:56:00,19.9,13.3,30.27,North,-999,3.2,-999.0,75,-99.99,,,-99.99,Acu-Link.com,2013-03-20 06:56:00,
2013-03-20 02:12:00,19.2,13.2,30.28,North,-999,3.2,-999.0,77,-99.99,,,-99.99,Acu-Link.com,2013-03-20 07:12:00,
2013-03-20 02:27:00,18.9,13.2,30.27,North,-999,1.6,-999.0,78,-99.99,,,-99.99,Acu-Link.com,2013-03-20 07:27:00,
2013-03-20 02:43:00,18.4,13.0,30.27,North,-999,1.6,-999.0,79,-99.99,,,-99.99,Acu-Link.com,2013-03-20 07:43:00,
2013-03-20 02:58:00,18.0,12.9,30.28,North,-999,3.2,-999.0,80,-99.99,,,-99.99,Acu-Link.com,2013-03-20 07:58:00,
2013-03-20 03:17:00,18.0,12.9,30.28,North,-999,1.6,-999.0,80,-99.99,,,-99.99,Acu-Link.com,2013-03-20 08:17:00,
2013-03-20 03:52:00,17.2,12.4,30.28,North,-999,1.6,-999.0,81,-99.99,,,-99.99,Acu-Link.com,2013-03-20 08:52:00,
2013-03-20 04:07:00,17.5,12.1,30.28,North,-999,0.0,-999.0,79,-99.99,,,-99.99,Acu-Link.com,2013-03-20 09:07:00,
2013-03-20 04:22:00,17.6,11.9,30.28,North,-999,3.2,-999.0,78,-99.99,,,-99.99,Acu-Link.com,2013-03-20 09:22:00,
2013-03-20 04:38:00,17.6,11.9,30.28,North,-999,3.2,-999.0,78,-99.99,,,-99.99,Acu-Link.com,2013-03-20 09:38:00,
2013-03-20 04:53:00,17.1,11.4,30.28,North,-999,3.2,-999.0,78,-99.99,,,-99.99,Acu-Link.com,2013-03-20 09:53:00,
2013-03-20 05:08:00,17.0,11.6,30.29,North,-999,3.2,-999.0,79,-99.99,,,-99.99,Acu-Link.com,2013-03-20 10:08:00,
2013-03-20 05:23:00,17.4,11.4,30.29,North,-999,3.2,-999.0,77,-99.99,,,-99.99,Acu-Link.com,2013-03-20 10:23:00,
2013-03-20 05:38:00,17.0,11.3,30.29,North,-999,3.2,-999.0,78,-99.99,,,-99.99,Acu-Link.com,2013-03-20 10:38:00,
2013-03-20 05:54:00,16.7,10.5,30.29,North,-999,1.6,-999.0,76,-99.99,,,-99.99,Acu-Link.com,2013-03-20 10:54:00,
2013-03-20 06:10:00,16.2,10.3,30.29,North,-999,1.6,-999.0,77,-99.99,,,-99.99,Acu-Link.com,2013-03-20 11:10:00,
2013-03-20 06:25:00,15.7,9.8,30.29,North,-999,3.2,-999.0,77,-99.99,,,-99.99,Acu-Link.com,2013-03-20 11:25:00,
2013-03-20 06:40:00,15.5,9.9,30.29,North,-999,6.4,-999.0,78,-99.99,,,-99.99,Acu-Link.com,2013-03-20 11:40:00,
2013-03-20 06:56:00,15.2,9.9,30.30,North,-999,1.6,-999.0,79,-99.99,,,-99.99,Acu-Link.com,2013-03-20 11:56:00,
2013-03-20 07:26:00,14.1,9.6,30.30,North,-999,3.2,-999.0,82,-99.99,,,-99.99,Acu-Link.com,2013-03-20 12:26:00,
2013-03-20 07:41:00,14.0,9.8,30.30,North,-999,1.6,-999.0,83,-99.99,,,-99.99,Acu-Link.com,2013-03-20 12:41:00,
2013-03-20 07:57:00,16.9,11.8,30.30,North,-999,0.0,-999.0,80,-99.99,,,-99.99,Acu-Link.com,2013-03-20 12:57:00,
2013-03-20 08:12:00,19.5,12.0,30.30,North,-999,4.8,-999.0,72,-99.99,,,-99.99,Acu-Link.com,2013-03-20 13:12:00,
2013-03-20 08:27:00,22.1,12.8,30.30,North,-999,1.6,-999.0,67,-99.99,,,-99.99,Acu-Link.com,2013-03-20 13:27:00,
2013-03-20 08:43:00,23.0,12.3,30.30,North,-999,1.6,-999.0,63,-99.99,,,-99.99,Acu-Link.com,2013-03-20 13:43:00,
2013-03-20 08:58:00,21.9,10.5,30.29,North,-999,6.4,-999.0,61,-99.99,,,-99.99,Acu-Link.com,2013-03-20 13:58:00,
2013-03-20 09:13:00,22.6,7.7,30.29,North,-999,4.8,-999.0,52,-99.99,,,-99.99,Acu-Link.com,2013-03-20 14:13:00,
2013-03-20 09:29:00,24.3,7.5,30.29,North,-999,4.8,-999.0,48,-99.99,,,-99.99,Acu-Link.com,2013-03-20 14:29:00,
2013-03-20 09:44:00,24.7,5.9,30.29,North,-999,4.8,-999.0,44,-99.99,,,-99.99,Acu-Link.com,2013-03-20 14:44:00,
2013-03-20 09:59:00,26.0,6.1,30.30,North,-999,4.8,-999.0,42,-99.99,,,-99.99,Acu-Link.com,2013-03-20 14:59:00,
2013-03-20 10:14:00,26.6,6.6,30.29,North,-999,3.2,-999.0,42,-99.99,,,-99.99,Acu-Link.com,2013-03-20 15:14:00,
2013-03-20 10:30:00,27.0,5.4,30.28,North,-999,6.4,-999.0,39,-99.99,,,-99.99,Acu-Link.com,2013-03-20 15:30:00,
2013-03-20 10:45:00,28.1,4.6,30.28,North,-999,4.8,-999.0,36,-99.99,,,-99.99,Acu-Link.com,2013-03-20 15:45:00,
2013-03-20 11:00:00,27.8,4.4,30.28,North,-999,6.4,-999.0,36,-99.99,,,-99.99,Acu-Link.com,2013-03-20 16:00:00,
2013-03-20 11:15:00,29.2,6.8,30.28,North,-999,3.2,-999.0,38,-99.99,,,-99.99,Acu-Link.com,2013-03-20 16:15:00,
2013-03-20 11:46:00,30.7,6.9,30.28,North,-999,4.8,-999.0,36,-99.99,,,-99.99,Acu-Link.com,2013-03-20 16:46:00,
2013-03-20 12:01:00,32.3,9.0,30.26,North,-999,3.2,-999.0,37,-99.99,,,-99.99,Acu-Link.com,2013-03-20 17:01:00,
2013-03-20 12:17:00,33.7,9.0,30.26,North,-999,4.8,-999.0,35,-99.99,,,-99.99,Acu-Link.com,2013-03-20 17:17:00,
2013-03-20 12:32:00,33.5,9.4,30.25,North,-999,6.4,-999.0,36,-99.99,,,-99.99,Acu-Link.com,2013-03-20 17:32:00,
2013-03-20 12:47:00,30.2,8.8,30.24,North,-999,9.6,-999.0,40,-99.99,,,-99.99,Acu-Link.com,2013-03-20 17:47:00,
2013-03-20 13:03:00,34.6,10.4,30.22,North,-999,3.2,-999.0,36,-99.99,,,-99.99,Acu-Link.com,2013-03-20 18:03:00,
2013-03-20 13:18:00,34.3,10.8,30.21,North,-999,8.0,-999.0,37,-99.99,,,-99.99,Acu-Link.com,2013-03-20 18:18:00,
2013-03-20 13:49:00,37.9,12.7,30.19,North,-999,6.4,-999.0,35,-99.99,,,-99.99,Acu-Link.com,2013-03-20 18:49:00,
2013-03-20 14:04:00,36.5,12.1,30.17,North,-999,8.0,-999.0,36,-99.99,,,-99.99,Acu-Link.com,2013-03-20 19:04:00,
2013-03-20 14:19:00,37.9,12.1,30.15,North,-999,3.2,-999.0,34,-99.99,,,-99.99,Acu-Link.com,2013-03-20 19:19:00,
2013-03-20 14:35:00,38.4,12.5,30.15,North,-999,9.6,-999.0,34,-99.99,,,-99.99,Acu-Link.com,2013-03-20 19:35:00,
2013-03-20 14:50:00,37.8,12.0,30.13,North,-999,4.8,-999.0,34,-99.99,,,-99.99,Acu-Link.com,2013-03-20 19:50:00,
2013-03-20 15:05:00,39.4,12.7,30.12,North,-999,4.8,-999.0,33,-99.99,,,-99.99,Acu-Link.com,2013-03-20 20:05:00,
2013-03-20 15:20:00,40.6,12.4,30.11,North,-999,3.2,-999.0,31,-99.99,,,-99.99,Acu-Link.com,2013-03-20 20:20:00,
2013-03-20 16:06:00,40.3,13.5,30.08,North,-999,3.2,-999.0,33,-99.99,,,-99.99,Acu-Link.com,2013-03-20 21:06:00,
2013-03-20 16:22:00,40.5,12.3,30.07,North,-999,9.6,-999.0,31,-99.99,,,-99.99,Acu-Link.com,2013-03-20 21:22:00,
2013-03-20 16:37:00,39.9,12.5,30.06,North,-999,4.8,-999.0,32,-99.99,,,-99.99,Acu-Link.com,2013-03-20 21:37:00,
2013-03-20 16:52:00,39.7,11.6,30.05,North,-999,12.8,-999.0,31,-99.99,,,-99.99,Acu-Link.com,2013-03-20 21:52:00,
2013-03-20 17:08:00,40.2,12.0,30.04,North,-999,8.0,-999.0,31,-99.99,,,-99.99,Acu-Link.com,2013-03-20 22:08:00,
2013-03-20 17:23:00,39.6,12.9,30.03,North,-999,1.6,-999.0,33,-99.99,,,-99.99,Acu-Link.com,2013-03-20 22:23:00,
2013-03-20 17:38:00,38.6,12.0,30.03,North,-999,4.8,-999.0,33,-99.99,,,-99.99,Acu-Link.com,2013-03-20 22:38:00,
2013-03-20 17:53:00,38.4,11.1,30.03,North,-999,6.4,-999.0,32,-99.99,,,-99.99,Acu-Link.com,2013-03-20 22:53:00,
2013-03-20 18:09:00,37.0,11.9,30.02,North,-999,6.4,-999.0,35,-99.99,,,-99.99,Acu-Link.com,2013-03-20 23:09:00,
2013-03-20 18:24:00,38.3,12.4,30.02,North,-999,0.0,-999.0,34,-99.99,,,-99.99,Acu-Link.com,2013-03-20 23:24:00,
2013-03-20 18:39:00,37.7,11.2,30.02,North,-999,1.6,-999.0,33,-99.99,,,-99.99,Acu-Link.com,2013-03-20 23:39:00,
2013-03-20 18:55:00,36.8,11.7,30.02,North,-999,0.0,-999.0,35,-99.99,,,-99.99,Acu-Link.com,2013-03-20 23:55:00,
2013-03-20 19:10:00,35.0,10.8,30.01,North,-999,0.0,-999.0,36,-99.99,,,-99.99,Acu-Link.com,2013-03-21 00:10:00,
2013-03-20 19:25:00,32.1,10.5,30.01,North,-999,0.0,-999.0,40,-99.99,,,-99.99,Acu-Link.com,2013-03-21 00:25:00,
2013-03-20 19:41:00,27.9,10.8,30.01,North,-999,0.0,-999.0,48,-99.99,,,-99.99,Acu-Link.com,2013-03-21 00:41:00,
2013-03-20 19:56:00,26.0,10.8,30.01,North,-999,0.0,-999.0,52,-99.99,,,-99.99,Acu-Link.com,2013-03-21 00:56:00,
2013-03-20 20:11:00,25.1,12.0,30.01,North,-999,0.0,-999.0,57,-99.99,,,-99.99,Acu-Link.com,2013-03-21 01:11:00,
2013-03-20 20:26:00,23.7,12.2,30.00,North,-999,0.0,-999.0,61,-99.99,,,-99.99,Acu-Link.com,2013-03-21 01:26:00,
2013-03-20 20:56:00,24.7,12.1,30.00,North,-999,0.0,-999.0,58,-99.99,,,-99.99,Acu-Link.com,2013-03-21 01:56:00,
2013-03-20 21:12:00,24.2,12.7,30.00,North,-999,0.0,-999.0,61,-99.99,,,-99.99,Acu-Link.com,2013-03-21 02:12:00,
2013-03-20 21:28:00,25.1,12.8,29.99,North,-999,0.0,-999.0,59,-99.99,,,-99.99,Acu-Link.com,2013-03-21 02:28:00,
2013-03-20 21:43:00,25.2,12.9,29.98,North,-999,3.2,-999.0,59,-99.99,,,-99.99,Acu-Link.com,2013-03-21 02:43:00,
2013-03-20 21:58:00,25.3,13.0,29.98,North,-999,1.6,-999.0,59,-99.99,,,-99.99,Acu-Link.com,2013-03-21 02:58:00,
2013-03-20 22:13:00,25.7,13.8,29.98,North,-999,3.2,-999.0,60,-99.99,,,-99.99,Acu-Link.com,2013-03-21 03:13:00,
2013-03-20 22:29:00,26.2,13.9,29.98,North,-999,4.8,-999.0,59,-99.99,,,-99.99,Acu-Link.com,2013-03-21 03:29:00,
2013-03-20 22:44:00,25.7,13.8,29.97,North,-999,4.8,-999.0,60,-99.99,,,-99.99,Acu-Link.com,2013-03-21 03:44:00,
2013-03-20 22:59:00,25.2,14.0,29.97,North,-999,6.4,-999.0,62,-99.99,,,-99.99,Acu-Link.com,2013-03-21 03:59:00,
2013-03-20 23:14:00,25.1,13.9,29.96,North,-999,4.8,-999.0,62,-99.99,,,-99.99,Acu-Link.com,2013-03-21 04:14:00,
2013-03-20 23:30:00,24.6,13.8,29.96,North,-999,4.8,-999.0,63,-99.99,,,-99.99,Acu-Link.com,2013-03-21 04:30:00,
2013-03-20 23:45:00,24.4,13.3,29.95,North,-999,3.2,-999.0,62,-99.99,,,-99.99,Acu-Link.com,2013-03-21 04:45:00,